Flag for Denmark Weather past 2 weeks in Odense, Denmark

Now
43 °F

Quite cool.


Feels Like: 38 °F
Forecast: 44 / 56 °F
Wind: 8 mph from Northwest

Location: Vamdrup

Current Time: Apr 22, 2015 at 3:58:52 AM

Latest Report: Apr 22, 2015 at 3:20 AM


Visibility: N/A

Pressure: 30.21 "Hg

Humidity: 81%

Dew point: 37 °F

Location of OdenseLocation

Historic Weather in Odense — Graph

°F

Odense temperature yesterday

Maximum temperature yesterday: 55 °F (at 12:20 PM)
Minimum temperature yesterday: 41 °F (at 5:20 AM)
Average temperature yesterday: 48 °F

Past Weeks' High & Low Weather Summary

 TemperatureHumidityPressure
High68 °F (Apr 11, 1:50 PM)100% (Apr 7, 3:20 AM)30.51 "Hg (Apr 7, 3:20 AM)
Low34 °F (Apr 10, 1:50 AM)24% (Apr 20, 3:50 PM)29.77 "Hg (Apr 15, 1:20 PM)
Average46 °F77%30.18 "Hg
* Reported Apr 7 2:20 AM — Apr 22 2:20 AM, Odense, Weather by CustomWeather, © 2015

Note: Actual official high and low records may vary slightly from our data, if they occured in-between our weather recording intervals... More about our weather records

Advertising

Odense weather history for previous 24 hours

 ConditionsComfort  
Time TempWeatherWind HumidityBarometerVisibility
2:20 AM
Wed, Apr 22
45 °FQuite cool.12 mph76%30.21 "HgN/A
1:50 AM45 °FQuite cool.15 mph81%30.24 "HgN/A
1:20 AM46 °FCool.15 mph76%30.24 "HgN/A
12:50 AM46 °FCool.16 mph76%30.24 "HgN/A
12:20 AM46 °FCool.16 mph76%30.27 "HgN/A
11:50 PM
Tue, Apr 21
46 °FCool.16 mph76%30.27 "HgN/A
11:20 PM46 °FCool.15 mph76%30.27 "HgN/A
10:50 PM46 °FCool.15 mph76%30.30 "HgN/A
10:20 PM46 °FCool.14 mph76%30.30 "HgN/A
9:50 PM46 °FCool.16 mph76%30.30 "HgN/A
9:20 PM46 °FCool.20 mph76%30.30 "HgN/A
8:50 PM46 °FCool.16 mph76%30.30 "HgN/A
8:20 PM46 °FCool.18 mph76%30.30 "HgN/A
7:50 PM48 °FCool.18 mph71%30.30 "HgN/A
7:20 PM48 °FCool.20 mph71%30.30 "HgN/A
6:50 PM50 °FCool.18 mph67%30.30 "HgN/A
6:20 PM50 °FCool.18 mph67%30.30 "HgN/A
5:50 PM50 °FCool.20 mph67%30.33 "HgN/A
5:20 PM50 °FCool.17 mph67%30.33 "HgN/A
4:50 PM52 °FCool.17 mph67%30.33 "HgN/A
4:20 PM52 °FCool.18 mph62%30.33 "HgN/A
3:50 PM54 °FCool.18 mph63%30.33 "HgN/A
3:20 PM54 °FCool.18 mph63%30.33 "HgN/A
2:50 PM55 °FRefreshingly cool.17 mph59%30.33 "HgN/A
2:20 PM55 °FRefreshingly cool.17 mph59%30.33 "HgN/A
1:50 PM55 °FRefreshingly cool.15 mph59%30.33 "HgN/A
1:20 PM55 °FCool.15 mph63%30.33 "HgN/A
12:50 PM54 °FCool.17 mph67%30.33 "HgN/A
12:20 PM55 °FCool.16 mph63%30.33 "HgN/A
11:20 AM54 °FPassing clouds.17 mph63%30.33 "HgN/A
10:50 AM54 °FSunny.20 mph63%30.33 "Hg10 mi
9:50 AM52 °FSunny.16 mph67%30.30 "Hg10 mi
8:50 AM48 °FSunny.15 mph76%30.33 "Hg10 mi
8:20 AM46 °FSunny.14 mph82%30.33 "Hg10 mi
7:50 AM45 °FSunny.13 mph81%30.33 "Hg10 mi
7:20 AM43 °FQuite cool.12 mph87%30.30 "HgN/A
6:50 AM43 °FQuite cool.12 mph87%30.30 "HgN/A
6:20 AM41 °FQuite cool.9 mph87%30.30 "HgN/A
5:20 AM41 °FQuite cool.8 mph87%30.33 "HgN/A
4:50 AM43 °FQuite cool.8 mph81%30.33 "HgN/A
4:20 AM43 °FQuite cool.8 mph81%30.33 "HgN/A
3:50 AM43 °FQuite cool.7 mph76%30.33 "HgN/A
3:20 AM43 °FQuite cool.7 mph76%30.33 "HgN/A
Weather by CustomWeather, © 2015

See weather overviewHow to use our weather pages